www.pogodaiklimat.ru

Погода и климат >> Архив погоды >> Россия >> Крым >> Клепинино


ПОГОДА в Клепинино

  • Прогноз погоды в Клепинино
  • Монитор погоды в Клепинино
  • Климат города

АРХИВ ПОГОДЫ в Клепинино

Время (UTC), дата Ветер
(напр.,м/с)
 
Видим.   Явления Облачность Т
(С)
Тd
(С)
f
(%)
Тe
(С)
Тes
(С)
Комфортность P
(гПа)
Po
(гПа)
Тmin
(С)
Tmax
(С)
R
(мм)
R24
(мм)
S
(см)
03 5.12 С 1 н/о 10 баллов +1.4 +0.8 96 -1 -1 1019.4 1014.7 +0.3
06 5.12 СЗ 1 20 км 9 баллов +1.3 -0.2 90 -1 -1 1019.4 1014.7 +0.3
09 5.12 С 1 20 км 9 баллов +2.8 -0.5 79 +1 +2 1020.7 1016.0
12 5.12 С 2 20 км 4 балла +5.5 -4.1 50 +4 +5 1019.3 1014.7
15 5.12 штиль 0 н/о 4 балла +1.6 -3.3 70 +1 +1 1020.7 1016.0
18 5.12 С 3 н/о 6 баллов +1.7 -0.2 87 -3 -3 1020.7 1016.0 +5.8
00 6.12 З 1 н/о 2 балла -1.6 -2.4 94 -4 -4 1020.7 1016.0
03 6.12 СЗ 1 н/о 2 балла -1.6 -2.2 96 -4 -4 1020.7 1016.0 -1.9
06 6.12 З 1 20 км 2 балла -2.4 -3.1 95 -5 -5 1022.0 1017.3 -2.4
09 6.12 З 3 20 км 2 балла +3.1 -2.0 69 -1 +1 1020.6 1016.0
12 6.12 З 4 20 км 9 баллов +4.4 -3.6 56 +1 +1 1019.3 1014.7
15 6.12 ЮЗ 4 н/о 10 баллов +3.6 -1.2 71 -1 -1 1017.9 1013.3
18 6.12 ЮЗ 3 н/о слабый ливневой дождь 10 баллов +4.6 +2.9 89 +1 +1 1017.9 1013.3 +5.5 0.0
21 6.12 З 2 н/о 9 баллов +4.6 +3.6 93 +2 +2 1017.9 1013.3
00 7.12 З 1 н/о слабый ливневой дождь 10 баллов +4.7 +3.7 93 +3 +3 1016.6 1012.0
03 7.12 СЗ 3 н/о слабый ливневой дождь 10 баллов +4.8 +3.3 90 +1 +1 1016.6 1012.0 +3.6 0.8
06 7.12 СЗ 4 20 км слабый ливневой дождь 10 баллов +5.1 +3.9 92 +1 +1 1017.9 1013.3 +3.6 0.9
09 7.12 СЗ 5 20 км слабый ливневой дождь 10 баллов +6.1 +4.3 88 +2 +2 1019.3 1014.7
12 7.12 СЗ 5 20 км 10 баллов +6.7 +3.7 81 +3 +3 1019.3 1014.7
15 7.12 З 4 н/о 10 баллов +6.3 +3.6 83 +3 +3 1019.3 1014.7 0.6
18 7.12 З 3 н/о 10 баллов +5.8 +3.6 86 +2 +2 1020.6 1016.0 +7.2 0.5
21 7.12 З 4 н/о слабый ливневой дождь 10 баллов +6.0 +5.3 95 +2 +2 1020.6 1016.0
00 8.12 З 3 н/о 9 баллов +6.1 +4.7 91 +3 +3 1020.6 1016.0
03 8.12 З 2 н/о 10 баллов +5.1 +4.4 95 +2 +2 1019.3 1014.7 +5.0 0.8
06 8.12 ЮЗ 2 20 км 7 баллов +4.3 +3.3 93 +1 +1 1020.6 1016.0 +3.9 0.8
09 8.12 З 4 20 км 6 баллов +8.8 +6.1 83 +6 +6 1020.5 1016.0
12 8.12 З 4 20 км 9 баллов +10.3 +4.2 66 +8 +8 1019.2 1014.7
15 8.12 ЮЗ 2 н/о 10 баллов +8.6 +4.6 76 +7 +7 1019.2 1014.7
18 8.12 ЮЗ 3 н/о 10 баллов +7.2 +5.7 90 +4 +4 1019.3 1014.7 +11.8
21 8.12 Ю 2 н/о 7 баллов +3.3 +2.9 97 0 0 1019.3 1014.7
00 9.12 Ю 2 н/о ясно +3.4 +3.3 99 0 0 1017.9 1013.3
03 9.12 З 4 н/о ясно +5.4 +4.2 92 +1 +1 1017.9 1013.3 +2.5
06 9.12 Ю 3 20 км 4 балла +6.3 +5.4 94 +3 +3 1016.6 1012.0 +2.5
09 9.12 ЮЗ 5 20 км 7 баллов +11.9 +8.4 79 +9 +10 1016.5 1012.0
12 9.12 ЮЗ 6 20 км 7 баллов +12.4 +7.3 71 +10 +10 1015.2 1010.7 -1.3
15 9.12 ЮЗ 3 н/о 6 баллов +9.8 +5.8 76 +8 +8 1015.2 1010.7
18 9.12 Ю 3 н/о ясно +8.5 +4.1 74 +6 +6 1015.2 1010.7 +13.4
21 9.12 Ю 3 н/о 2 балла +7.5 +3.0 73 +5 +5 1013.8 1009.3
00 10.12 Ю 3 н/о 2 балла +7.1 +1.4 67 +4 +4 1013.8 1009.3
03 10.12 Ю 4 н/о 4 балла +8.2 +2.6 68 +5 +5 1012.5 1008.0 +6.1
06 10.12 Ю 3 20 км в посл. час ливневой дождь 7 баллов +8.6 +4.4 75 +6 +6 1011.2 1006.7 +6.1 0.0
09 10.12 Ю 4 20 км 6 баллов +14.6 +6.2 57 +14 +14 1008.4 1004.0
12 10.12 ЮЗ 5 10 км слабый ливневой дождь 9 баллов +13.8 +4.7 54 +12 +12 1005.7 1001.3
15 10.12 З 8 н/о слабый ливневой дождь 10 баллов +8.7 +7.5 92 +4 +4 1007.2 1002.7 4
18 10.12 З 8 н/о слабый ливневой дождь 9 баллов +4.6 +2.5 86 -1 -1 1011.3 1006.7 +17.3 5
21 10.12 З 6 н/о 10 баллов +3.6 +1.3 85 -2 -2 1016.6 1012.0
00 11.12 З 3 н/о 9 баллов +3.2 -1.0 74 -1 -1 1019.3 1014.7
03 11.12 Ю 2 н/о 7 баллов +3.3 +0.2 80 0 0 1020.6 1016.0 +2.6 0.9
06 11.12 Ю 3 20 км 9 баллов +3.5 +0.9 83 -0 -0 1020.6 1016.0 +2.6 0.0
09 11.12 ЮЗ 6 20 км 9 баллов +7.9 +1.5 64 +4 +4 1021.9 1017.3
12 11.12 ЮЗ 7 20 км 9 баллов +10.3 +1.1 53 +7 +7 1020.5 1016.0
15 11.12 ЮЗ 3 н/о 10 баллов +8.0 +3.7 74 +5 +5 1020.6 1016.0
18 11.12 З 3 н/о 4 балла +7.8 +4.9 82 +5 +5 1020.6 1016.0 +10.7
21 11.12 ЮЗ 3 н/о ясно +8.2 +5.5 83 +6 +6 1020.6 1016.0
00 12.12 ЮЗ 3 н/о 2 балла +8.8 +6.1 83 +6 +6 1020.5 1016.0

 

Местоположение метеостанции Клепинино (Крым, Россия): широта 45.53 долгота 34.18 высота над уровнем моря 37 м.

В архиве по умолчанию представлена погода в Клепинино за последнюю неделю. Архивные данные за месяц целиком и за предыдущие месяцы, начиная с января 2011 года, Вы можете получить, выбрав интересующий диапазон дат из раскрывающегося списка и нажав кнопку "Ввод!".

Внимание! Время в таблицах - всемирное. Для получения местного времени необходимо прибавить поправку, которая в Клепинино равна 3 ч.

Смотрите также архив погоды в соседних городах и на ближайших метеорологических станциях:

Погода в Джанкое (Крым, Россия) (27 км)
Погода в Стрелковом (Херсонская область, Украина) (29 км)
Погода в Нижнегорском (Крым, Россия) (44 км)
Погода в Симферополе (Крым, Россия) (58 км)
Погода в Белогорске (Крым, Россия) (63 км)
Погода в Евпатории (Крым, Россия) (74 км)
Погода в Хорлах (Херсонская область, Украина) (81 км)
Погода в Геническе (Херсонская область, Украина) (87 км)
Погода в Алуште (Крым, Россия) (97 км)
Погода в Аскании-Нове (Херсонская область, Украина) (105 км)

Пояснения к столбцам:

Ветер - указаны скорость ветра в м/с - средняя за 10 мин, порывы в срок и между сроками (в фигурных скобках) и направление, откуда дует ветер: С - северный, СВ - северо-восточный, В - восточный, ЮВ - юго-восточный, Ю - южный, ЮЗ - юго-западный, З - западный, СЗ - северо-западный.
Видимость - горизонтальная дальность видимости в метрах или километрах. При видимости от 1 до 10 км при отсутствии осадков обычно наблюдается дымка, при ухудшении видимости до 1 км и менее - туман. В сухую погоду видимость может ухудшаться дымом, пылью или мглою.
Явления - указаны атмосферные явления, наблюдавшиеся в срок или в последний час перед сроком; фигурными скобками обозначены явления, наблюдавшиеся между сроками (за 1-3 часа до срока); квадратными скобками обозначены град или гололедные отложения с указанием их диаметра в мм.
Облачность - указаны через наклонную черту общая и нижняя облачность в баллах и высота нижней границы облаков в метрах; квадратными скобками обозначены формы облаков: Ci - перистые, Cs - перисто-слоистые, Cc - перисто-кучевые, Ac - высококучевые, As - высокослоистые, Sc - слоисто-кучевые, Ns - слоисто-дождевые, Cu - кучевые, Cb - кучево-дождевые. Подробнее классификацию облаков см. в Атласе облаков (PDF).
T - Температура воздуха - температура, измеренная на высоте 2 м над землей.
Td - Температура точки росы - температура, при понижении до которой содержащийся в воздухе водяной пар достигнет насыщения.
f - Относительная влажность воздуха - влажноcть воздуха, измеренная на высоте 2 м над землей.
Te - Эффективная температура - температура, которую ощущает одетый по сезону человек в тени. Характеристика душности погоды. При расчете учитывается влияние влажности воздуха и скорости ветра на теплоощущения человека.
Tes - Эффективная температура на солнце - температура, которую ощущает человек, с поправкой на солнечный нагрев. Характеристика знойности погоды. Зависит от высоты солнца над горизонтом, облачности и скорости ветра. Ночью, в пасмурную погоду, а также при ветре 12 м/с и более поправка равна нулю.
P - Атмосферное давление - приведенное к уровню моря атмосферное давление.
Po - Атмосферное давление - измеренное на уровне метеостанции атмосферное давление.
Tmin - Минимальная температура - минимум температуры воздуха на высоте 2 м над землей.
Tmax - Максимальная температура - максимум температуры воздуха на высоте 2 м над землей.
R - Количество осадков - Количество выпавших осадков за период времени, мм. При наведении курсора мыши на число - период времени, за который выпало указанное количество осадков.
R24 - Количество осадков - Количество выпавших осадков за 24 часа, мм.
S - Снежный покров - Высота снежного покрова, см. При наведении курсора мыши на число - состояние снежного покрова и степень покрытия местности в баллах.